Location: Altmatt
(47.1333°N, 8.7000°E)
Time: 19:03:24
(UTC+00:00)

USA 215 - Pass Details

Date: 13 July 2020
Orbit: 1102 x 1106 km, 123.0° (Epoch: 08 August)

Event Time Altitude Azimuth Distance (km) Brightness Sun altitude
Rises 20:25:37 0° 62° (ENE) 3,924 6.0 -9.5°
Reaches altitude 10° 20:29:01 10° 80° (E) 2,962 5.2 -9.9°
Maximum altitude 20:33:22 19° 122° (ESE) 2,378 4.4 -10.4°
Drops below altitude 10° 20:37:42 10° 165° (SSE) 2,950 5.0 -10.9°
Enters shadow 20:37:42 10° 165° (SSE) 2,952 5.0 -10.9°
